Flag for Austria Weather past 2 weeks in Klagenfurt, Carinthia, Austria

Now
84 °F

Passing clouds.


Feels Like: 86 °F
Forecast: 65 / 87 °F
Wind: 3 mph from Northeast

Location: Klagenfurt-Flughafen

Current Time: Jul 3, 2015 at 2:53:09 PM

Latest Report: Jul 3, 2015 at 1:50 PM


Visibility: N/A

Pressure: 30.30 "Hg

Humidity: 51%

Dew point: 64 °F

Location of KlagenfurtLocation

Historic Weather in Klagenfurt — Graph

°F

Klagenfurt temperature yesterday

Maximum temperature yesterday: 88 °F (at 3:20 PM)
Minimum temperature yesterday: 63 °F (at 4:50 AM)
Average temperature yesterday: 75 °F

Past Weeks' High & Low Weather Summary

 TemperatureHumidityPressure
High88 °F (Jul 2, 3:20 PM)100% (Jun 23, 10:50 PM)30.36 "Hg (Jun 23, 10:50 PM)
Low46 °F (Jun 25, 4:50 AM)32% (Jun 28, 2:50 PM)29.77 "Hg (Jun 23, 4:20 AM)
Average64 °F68%30.10 "Hg
* Reported Jun 18 1:20 PM — Jul 3 1:20 PM, Klagenfurt, Weather by CustomWeather, © 2015

Note: Actual official high and low records may vary slightly from our data, if they occured in-between our weather recording intervals... More about our weather records

Advertising

Klagenfurt weather history for previous 24 hours

 ConditionsComfort  
Time TempWeatherWind HumidityBarometerVisibility
1:20 PM
Fri, Jul 3
82 °FPassing clouds.3 mph51%30.30 "HgN/A
12:50 PM82 °FPassing clouds.5 mph55%30.30 "HgN/A
12:20 PM81 °FPassing clouds.2 mph58%30.30 "HgN/A
11:50 AM79 °FPassing clouds.3 mph61%30.33 "HgN/A
11:20 AM79 °FPassing clouds.1 mph61%30.33 "HgN/A
10:50 AM79 °FPassing clouds.3 mph65%30.33 "HgN/A
10:20 AM75 °FPassing clouds.3 mph65%30.33 "HgN/A
9:50 AM73 °FPassing clouds.3 mph74%30.33 "HgN/A
9:20 AM73 °FPassing clouds.2 mph69%30.33 "HgN/A
8:50 AM72 °FPassing clouds.2 mph78%30.33 "HgN/A
8:20 AM70 °FPassing clouds.2 mph78%30.36 "HgN/A
7:50 AM68 °FPassing clouds.5 mph83%30.36 "HgN/A
7:20 AM66 °FPassing clouds.5 mph83%30.33 "HgN/A
6:50 AM64 °FPassing clouds.3 mph88%30.33 "HgN/A
6:20 AM63 °FScattered clouds.3 mph94%30.33 "HgN/A
5:50 AM63 °FPassing clouds.3 mph94%30.33 "HgN/A
5:20 AM63 °FPassing clouds.3 mph94%30.33 "HgN/A
4:50 AM64 °FMild.3 mph88%30.30 "HgN/A
4:20 AM64 °FMild.3 mph88%30.30 "HgN/A
3:50 AM64 °FMild.3 mph88%30.30 "HgN/A
3:20 AM66 °FMild.2 mph88%30.30 "HgN/A
2:50 AM66 °FMild.3 mph88%30.30 "HgN/A
2:20 AM66 °FMild.2 mph88%30.30 "HgN/A
1:50 AM66 °FMild.2 mph88%30.30 "HgN/A
1:20 AM68 °FMild.2 mph83%30.30 "HgN/A
12:50 AM68 °FMild.3 mph83%30.30 "HgN/A
12:20 AM70 °FMild.6 mph78%30.30 "HgN/A
11:50 PM
Thu, Jul 2
70 °FPassing clouds.6 mph83%30.30 "HgN/A
11:20 PM72 °FPassing clouds.2 mph78%30.30 "HgN/A
10:50 PM72 °FPassing clouds.6 mph78%30.27 "HgN/A
10:20 PM73 °FPassing clouds.3 mph78%30.27 "HgN/A
9:50 PM73 °FThundershowers. Broken clouds.8 mph78%30.27 "HgN/A
9:20 PM75 °FScattered clouds.5 mph74%30.24 "HgN/A
8:50 PM79 °FThunderstorms. Broken clouds.3 mph61%30.24 "HgN/A
8:20 PM79 °FBroken clouds.2 mph61%30.21 "HgN/A
7:50 PM81 °FBroken clouds.3 mph58%30.21 "HgN/A
7:20 PM82 °FBroken clouds.6 mph51%30.18 "HgN/A
6:50 PM84 °FBroken clouds.6 mph48%30.18 "HgN/A
6:20 PM84 °FBroken clouds.7 mph48%30.15 "HgN/A
5:50 PM86 °FScattered clouds.8 mph46%30.15 "HgN/A
5:20 PM88 °FScattered clouds.7 mph43%30.15 "HgN/A
4:50 PM88 °FScattered clouds.6 mph43%30.15 "HgN/A
4:20 PM88 °FScattered clouds.6 mph43%30.15 "HgN/A
3:50 PM88 °FPassing clouds.6 mph38%30.15 "HgN/A
3:20 PM88 °FPassing clouds.5 mph40%30.15 "HgN/A
2:50 PM86 °FPassing clouds.5 mph43%30.15 "HgN/A
2:20 PM86 °FPassing clouds.3 mph43%30.18 "HgN/A
Weather by CustomWeather, © 2015

See weather overviewHow to use our weather pages